Location: Arbon
(43.0005°N, 0.7472°E)
Time: 13:53:07
(UTC+00:00)

Vanguard 1 - Visible Passes

Search period start: 23 June 2021 00:00
Search period end: 03 July 2021 00:00
Orbit: 650 x 3833 km, 34.2° (Epoch: 22 June)

Date Brightness Start Highest point End Pass type
(mag) Time Alt. Az. Time Alt. Az. Time Alt. Az.
23 Jun 12.0 01:19:46 10° W 01:36:28 43° SSW 01:46:12 10° SE visible
23 Jun 12.7 20:47:00 10° WSW 21:09:58 62° SSE 21:27:09 10° E visible
23 Jun 12.2 23:13:18 10° W 23:34:56 62° SSW 23:48:05 10° ESE visible
24 Jun 12.1 01:41:32 10° W 01:56:57 37° SW 02:06:17 10° SSE visible
24 Jun 12.7 21:08:03 10° WSW 21:31:14 65° S 21:48:09 10° E visible
24 Jun 12.2 23:34:50 10° W 23:55:57 58° SSW 00:08:43 10° ESE visible
25 Jun 12.3 02:03:32 10° W 02:17:15 29° SW 02:26:02 10° SSE visible
25 Jun 12.6 21:29:15 10° WSW 21:52:31 66° S 22:09:06 10° ESE visible
25 Jun 12.2 23:56:25 10° W 00:16:50 53° SSW 00:29:12 10° SE visible
26 Jun 12.5 02:25:53 10° W 02:37:25 23° SW 02:45:19 10° S visible
26 Jun 12.6 21:50:35 10° W 22:13:46 66° S 22:30:00 10° ESE visible
27 Jun 12.3 00:18:05 10° W 00:37:33 47° SSW 00:49:32 10° SE visible
27 Jun 12.7 02:49:03 10° W 02:57:25 16° SW 03:03:48 10° SSW visible
27 Jun 13.0 19:46:43 10° WSW 20:09:06 63° SSE 20:28:53 10° E visible
27 Jun 12.6 22:11:59 10° W 22:35:00 64° SSW 22:50:48 10° ESE visible
28 Jun 12.4 00:39:51 10° W 00:58:06 40° SW 01:06:10 22° SSE visible
28 Jun 12.9 03:15:07 10° WSW 03:17:19 10° WSW 03:18:36 10° SW visible
28 Jun 12.9 20:07:41 10° WSW 20:30:24 66° S 20:49:59 10° E visible
28 Jun 12.6 22:33:27 10° W 22:56:06 60° SSW 23:11:00 12° ESE visible
29 Jun 12.4 01:01:48 10° W 01:18:28 33° SW 01:23:31 27° SSW visible
29 Jun 12.9 20:28:48 10° WSW 20:51:44 67° S 21:11:02 10° ESE visible
29 Jun 12.6 22:54:58 10° W 23:17:04 55° SSW 23:28:56 21° SE visible
30 Jun 12.6 01:24:06 10° W 01:38:40 26° SW 01:41:29 25° SSW visible
30 Jun 12.9 20:50:01 10° W 21:13:04 67° S 21:32:00 10° ESE visible
30 Jun 12.6 23:16:34 10° W 23:37:53 49° SSW 23:47:11 28° SSE visible
01 Jul 12.9 01:47:02 10° W 01:58:44 20° SW 01:59:45 20° SW visible
01 Jul 12.8 21:11:19 10° W 21:34:21 65° S 21:52:53 10° ESE visible
01 Jul 12.5 23:38:16 10° W 23:58:32 43° SW 00:05:36 32° S visible
02 Jul 13.2 02:11:26 10° W 02:18:11 13° WSW 02:18:11 13° WSW visible
02 Jul 12.8 21:32:41 10° W 21:55:33 62° SSW 22:11:33 16° SE visible
